Flag for Denmark Weather past 2 weeks in Horsens, Denmark

Now
54 °F

Fog.


Feels Like: 50 °F
Forecast: 53 / 56 °F
Wind: 10 mph from South

Location: Billund Lufthavn

Current Time: Oct 23, 2014 at 9:05:30 PM

Latest Report: Oct 23, 2014 at 8:20 PM


Visibility: 2 mi

Pressure: 30.07 "Hg

Humidity: 94%

Dew point: 52 °F

Location of HorsensLocation

Historic Weather in Horsens — Graph

°F

Horsens temperature yesterday

Maximum temperature yesterday: 55 °F (at 2:20 PM)
Minimum temperature yesterday: 39 °F (at 6:20 AM)
Average temperature yesterday: 48 °F

Past Weeks' High & Low Weather Summary

 TemperatureHumidityPressure
High63 °F (Oct 11, 2:20 PM)100% (Oct 9, 10:20 PM)30.09 "Hg (Oct 9, 10:20 PM)
Low39 °F (Oct 12, 10:50 PM)64% (Oct 11, 2:20 PM)29.27 "Hg (Oct 21, 5:20 PM)
Average53 °F92%29.76 "Hg
* Reported Oct 8 7:20 PM — Oct 23 7:50 PM, Horsens, Weather by CustomWeather, © 2014

Note: Actual official high and low records may vary slightly from our data, if they occured in-between our weather recording intervals... More about our weather records

Advertising

Horsens weather history for previous 24 hours

 ConditionsComfort  
Time TempWeatherWind HumidityBarometerVisibility
7:50 PM
Oct 23
54 °FFog.10 mph94%30.07 "Hg3 mi
7:20 PM54 °FLow clouds.9 mph94%30.07 "Hg4 mi
6:50 PM54 °FLow clouds.10 mph94%30.07 "Hg4 mi
6:20 PM54 °FDrizzle. Partly sunny.9 mph94%30.07 "Hg3 mi
5:50 PM54 °FDrizzle. Partly sunny.9 mph94%30.07 "Hg4 mi
5:20 PM54 °FDrizzle. Fog.9 mph94%30.07 "Hg3 mi
4:50 PM52 °FDrizzle. Fog.10 mph100%30.07 "Hg2 mi
4:20 PM52 °FDrizzle. Fog.10 mph100%30.07 "Hg1 mi
3:50 PM52 °FDrizzle. Fog.9 mph100%30.07 "Hg1 mi
3:20 PM52 °FDrizzle. Fog.9 mph100%30.07 "Hg2 mi
2:50 PM52 °FDrizzle. Fog.10 mph94%30.07 "Hg2 mi
2:20 PM52 °FPartly sunny.10 mph88%30.07 "HgN/A
1:50 PM52 °FPartly sunny.9 mph88%30.09 "HgN/A
1:20 PMN/ADrizzle.10 mphN/A30.09 "HgN/A
12:50 PM50 °FDrizzle. Overcast.9 mph88%30.09 "HgN/A
12:20 PM50 °FDrizzle. Overcast.8 mph88%30.09 "HgN/A
11:50 AM50 °FDrizzle. Overcast.7 mph88%30.09 "HgN/A
11:20 AM50 °FLight rain. Overcast.7 mph82%30.09 "HgN/A
10:50 AM50 °FOvercast.7 mph82%30.09 "HgN/A
10:20 AM50 °FOvercast.7 mph82%30.09 "HgN/A
9:50 AM50 °FPartly sunny.7 mph82%30.09 "HgN/A
9:20 AM48 °FPartly sunny.3 mph87%30.07 "HgN/A
8:50 AM48 °FOvercast.6 mph87%30.07 "Hg6 mi
8:20 AM48 °FPassing clouds.3 mph87%30.07 "Hg6 mi
7:50 AM48 °FPassing clouds.2 mph87%30.07 "Hg6 mi
7:20 AM48 °FFog.1 mph94%30.07 "Hg6 mi
6:50 AM48 °FPassing clouds.2 mph87%30.07 "Hg3 mi
6:20 AM48 °FPartly cloudy.2 mph94%30.07 "Hg4 mi
5:50 AM48 °FPassing clouds.3 mph94%30.07 "Hg4 mi
5:20 AM48 °FOvercast.2 mph94%30.07 "Hg6 mi
4:50 AM48 °FOvercast.1 mph94%30.04 "Hg6 mi
4:20 AM48 °FPassing clouds.3 mph94%30.04 "HgN/A
3:50 AM48 °FPassing clouds.3 mph94%30.04 "HgN/A
3:20 AM50 °FOvercast.3 mph88%30.04 "HgN/A
2:50 AM50 °FOvercast.7 mph88%30.04 "HgN/A
2:20 AM50 °FMostly cloudy.6 mph88%30.04 "HgN/A
1:50 AM50 °FPassing clouds.8 mph94%30.04 "Hg6 mi
1:20 AM50 °FPassing clouds.12 mph94%30.01 "Hg4 mi
12:50 AM50 °FFog.10 mph94%30.01 "Hg1 mi
12:20 AM50 °FDrizzle. Fog.10 mph100%30.01 "Hg1 mi
11:50 PM
Oct 22
50 °FDrizzle. Fog.9 mph100%30.01 "Hg2 mi
11:20 PM50 °FDrizzle. Fog.10 mph100%29.98 "Hg2 mi
11:01 PM50 °FDrizzle. Fog.9 mph100%29.98 "Hg2 mi
10:20 PM52 °FLow clouds.7 mph94%29.98 "HgN/A
9:50 PM52 °FLow clouds.7 mph94%29.98 "HgN/A
9:20 PM52 °FLow clouds.8 mph94%29.95 "HgN/A
Weather by CustomWeather, © 2014

See weather overviewHow to use our weather pages